sat.trackr.live / text

‹ back to catalog

STARLINK-5755

NORAD 55600 · 2023-020AH

PAYLOAD ACTIVE UNKNOWN

§ Identity

Operator
Country
US
Launch date
2023-02-12
Launch site
AFETR
Launch vehicle
Mass (kg)
RCS (m²)

Purposes: comms

External: N2YO · Heavens-Above · Gunter

§ Orbital elements

Epoch: 2026-05-25T01:55:41.109888Z

Period
94.27 min
Inclination
43.0020°
Eccentricity
0.0000987
Mean motion
15.27577709 rev/d
Perigee alt
482.4 km
Apogee alt
483.7 km
Semi-major
6,861.2 km
B*
7.2111e-6
RAAN
282.6981°
Arg perigee
279.3430°
Mean anomaly
80.7310°
Rev number
18,072

§ Raw data

STARLINK-57551 55600U 23020AH  26145.08033692 -.00000064  00000+0  72111-5 0  99992 55600  43.0020 282.6981 0000987 279.3430  80.7310 15.27577709180722

JSON: /api/v1/satellites/55600 · /tle

For live sub-satellite position, see the globe view (requires WebGL).

§ Visibility from observer

Set your observer location to see the next 7 days of passes ≥ 10°. The values pass through the URL so the page stays shareable.

No JS? Fill the form by hand. The geolocation button needs JavaScript.